Regional Weather Roundup
Issued by NWS

Home | Current Version | Previous Version | Graphics & Text | Print | Product List | Glossary On
Versions: 1 2 3 4 5 6 7 8 9 10 11 12 13 14 15 16 17 18 19 20 21 22 23 24 25 26 27 28 29 30 31 32 33 34 35 36 37 38 39 40 41 42 43 44 45 46 47 48 49 50
000
ASUS45 KBOU 040710
RWRCO

WEATHER ROUNDUP FOR COLORADO
NATIONAL WEATHER SERVICE DENVER/BOULDER CO
100 AM MDT SAT JUL 04 2015

NOTE: "FAIR" INDICATES FEW OR NO CLOUDS BELOW 12000 FEET WITH NO
SIGNIFICANT WEATHER AND/OR OBSTRUCTIONS TO VISIBILITY.

COZ001>005-013-030-031-040800-
...NORTHWEST COLORADO...

CITY           SKY/WX    TMP DP  RH WIND       PRES   REMARKS
CRAIG          CLEAR     59  45  59 CALM      30.09S
HAYDEN         CLEAR     64  41  42 E9        30.12S
MEEKER         PTCLDY    61  48  62 CALM      30.13R
MOUNT WERNER   NOT AVBL
STEAMBOAT SPGS CLEAR     57  42  59 CALM      30.15S
WALDEN         PTCLDY    55  39  54 SE6       30.25S
$$

COZ006>008-011-040800-
...WEST CENTRAL VALLEYS...

CITY           SKY/WX    TMP DP  RH WIND       PRES   REMARKS
GRAND JUNCTION PTCLDY    78  50  37 S12       30.01R
MONTROSE       CLEAR     66  47  50 E5        30.13R
EAGLE          PTCLDY    64  48  55 NE9       30.19R
RIFLE            N/A     66  55  67 NE13      30.09
DELTA          CLEAR     70  54  57 E12       30.09R
NUCLA          CLEAR     64  48  55 E10       30.17S
$$

COZ017>023-064>068-040800-
...SOUTHWEST COLORADO...

CITY           SKY/WX    TMP DP  RH WIND       PRES   REMARKS
DURANGO        MOCLDY    58  49  72 N10       30.23S
CORTEZ         PTCLDY    65  51  60 SE5       30.17R
PAGOSA SPRINGS MOCLDY    55  51  87 CALM      30.31S
TELLURIDE      PTCLDY    54  46  74 SE5       30.40F
WOLF CREEK PAS NOT AVBL
$$

COZ009-010-012-014-032>034-037-058>063-040800-
...CENTRAL COLORADO...

CITY           SKY/WX    TMP DP  RH WIND       PRES   REMARKS
ASPEN          CLOUDY    59  51  75 S8        30.29S
BUENA VISTA    PTCLDY    52  48  86 NW3       30.34F
COPPER MTN     PTCLDY    54  41  62 S15G24    30.59F THUNDER
BERTHOUD PASS  FAIR      43  34  70 W13       30.62F
COTTONWOOD PAS NOT AVBL
GUNNISON       PTCLDY    54  45  71 NE3       30.34S
KREMMLING      PTCLDY    59  41  51 CALM      30.24S
LEADVILLE      MOCLDY    49  44  83 E5        30.44F
MONARCH PASS   PTCLDY    46  39  76 S9        30.71F
SALIDA         PTCLDY    60  50  68 W7        30.38F
SUNLIGHT       MOCLDY    59  36  41 CALM      30.52F THUNDER
WILKERSON PASS PTCLDY    46  43  87 SW8       30.57F
$$

COZ069>075-040800-
...SAN LUIS VALLEY/SANGRE DE CRISTO MOUNTAINS...

CITY           SKY/WX    TMP DP  RH WIND       PRES   REMARKS
ALAMOSA        PTCLDY    54  50  86 E8        30.30F
LA VETA PASS   MOCLDY    48  39  71 MISG      30.47F
SAGUACHE       PTCLDY    52  50  93 NE7       30.34F
$$

COZ035-036-038>040-040800-
...NORTHERN COLORADO FRONT RANGE...

CITY           SKY/WX    TMP DP  RH WIND       PRES   REMARKS
DENVER INTL AP CLEAR     67  54  63 SW10      30.07F
DMNS CITY PARK   N/A     68  53  59 SE7G13    30.06F
AURORA         PTCLDY    64  53  67 S6        30.10F
FRONT RANGE AP CLEAR     64  55  72 S7        30.09F
ERIE MUNI ARPT CLEAR     65  58  79 CALM      30.04F
BOULDER MUN AP CLEAR     72  50  46 SW6       30.04F
CENTENNIAL     PTCLDY    65  52  62 S7        30.11F
BROOMFIELD     CLEAR     68  54  60 W3        30.08F
FORT COLLINS   CLEAR     68  57  68 N6        30.05F
LONGMONT       CLEAR     68  57  67 CALM      30.06F
$$

COZ041-046-047-076>085-087-088-040800-
...PIKES PEAK/PALMER DIVIDE AND SOUTHERN FOOTHILLS...

CITY           SKY/WX    TMP DP  RH WIND       PRES   REMARKS
COLO. SPRINGS  PTCLDY    61  53  75 E6        30.18F
A. F. ACADEMY  CLEAR     56  55  97 NW7       30.20F
ELLICOTT       CLEAR    N/A N/A N/A S6        30.18S
FALCON         CLEAR     57  49  75 SW7       30.23F
FORT CARSON    CLEAR     59  53  82 NW7       30.15F
LIMON          CLEAR     61  58  90 SE8       30.12F
MONUMENT HILL  NOT AVBL
TRINIDAD       CLOUDY    62  55  77 W9        30.16F
$$

COZ042>045-048>051-090-091-040800-
...NORTHEAST COLORADO...

CITY           SKY/WX    TMP DP  RH WIND       PRES   REMARKS
GREELEY ARPT   PTCLDY    66  59  77 SE8       30.03F
AKRON          CLEAR     65  60  84 SE14      30.06F
BURLINGTON     CLEAR     65  60  84 S13       30.08F
WRAY           PTCLDY    67  58  72 NE6       30.05S
STERLING       CLEAR     70  61  73 S14         N/A
HOLYOKE        PTCLDY    66  59  77 S8        30.04F
FORT MORGAN    CLEAR     66  56  70 E7        30.04F
$$

COZ086-089-092>099-040800-
...SOUTHEAST COLORADO...

CITY           SKY/WX    TMP DP  RH WIND       PRES   REMARKS
PUEBLO         CLEAR     63  56  78 SE7       30.08S
LA JUNTA       PTCLDY    70  55  59 W14       30.03F
LAMAR          PTCLDY    70  61  73 E6        30.03S
SPRINGFIELD      N/A     66  61  84 SW13      30.08F
$$



USA.gov is the U.S. government's official web portal to all federal, state and local government web resources and services.